Regional Weather Roundup
Issued by NWS

Home | Current Version | Previous Version | Text Only | Print | Product List | Glossary Off
Versions: 1 2 3 4 5 6 7 8 9 10 11 12 13 14 15 16 17 18 19 20 21 22 23 24 25 26 27 28 29 30 31 32 33 34 35 36 37 38 39 40 41 42 43 44 45 46 47 48 49 50

000
ASUS43 KBIS 242210
RWRND

NORTH DAKOTA REGIONAL WEATHER ROUNDUP
NATIONAL WEATHER SERVICE BISMARCK ND
400 PM CST FRI NOV 24 2017

NOTE: "FAIR" INDICATES FEW OR NO CLOUDS BELOW 12,000 FEET WITH NO
SIGNIFICANT WEATHER AND/OR OBSTRUCTIONS TO VISIBILITY.


NDZ001>003-009>011-017-242300-
NORTHWEST NORTH DAKOTA

CITY           SKY/WX    TMP DP  RH WIND       PRES   REMARKS
WILLISTON      CLEAR     49  30  48 W13       29.75R
MINOT          CLEAR     49  30  48 W22G35    29.68R
MINOT AFB      CLEAR     46  31  55 NW23G30   29.66R
$$

NDZ018>021-031>035-040>046-242300-
SOUTHWEST NORTH DAKOTA

CITY           SKY/WX    TMP DP  RH WIND       PRES   REMARKS
BISMARCK       CLEAR     54  33  45 NW14G26   29.73R
DICKINSON      CLEAR     50  30  46 NW15      29.76R
GARRISON         N/A     48  34  58 NW16G28   29.71R
HETTINGER ARPT CLEAR     50  32  50 W16       29.81R
$$

NDZ004>008-012>016-024-026-027-054-242300-
NORTHEAST NORTH DAKOTA

CITY           SKY/WX    TMP DP  RH WIND       PRES   REMARKS
GRAND FORKS    CLEAR     44  37  76 W10       29.55R
GRND FRKS AFB  CLEAR     44  35  70 W13       29.55R
DEVILS LAKE    CLEAR     44  34  67 W20       29.59R
$$

NDZ022-023-025-028>030-036>039-047>053-242300-
SOUTHEAST NORTH DAKOTA

CITY           SKY/WX    TMP DP  RH WIND       PRES   REMARKS
FARGO          CLEAR     48  34  58 NW21G29   29.58R
JAMESTOWN      PTCLDY    48  37  65 NW16      29.63R
$$




USA.gov is the U.S. government's official web portal to all federal, state and local government web resources and services.